Date String (YYYY-MM-DD hh:mm:ss) UTC,Instrument flags,Ambient pressure (hPa),Sample flow (lpm),Bypass flow (lpm),Sample temperature (°C),Ambient temperature (°C),ASC tube jacket temperature (°C),LED temperature (°C),Box temperature (°C),Sample RH (%),Span deviation,Mass concentration (μg/m³),Mass concentration (μg/m³),Mass concentration (μg/m³)
DateTimeUTC,F1_M11,P_M11,Q1_M11,Q2_M11,T1_M11,T2_M11,T3_M11,T4_M11,T5_M11,U1_M11,ZSPAN_M11,X0_M11,X2_M11,X1_M11
2022-08-10 23:00:00,,0832.0,5.00,0.00,29.4,28.1,00.0,38.1,31.3,21.2,0000.0,0013.44,0005.34,0004.11
2022-08-10 23:01:00,,0831.9,5.00,0.00,29.4,27.6,00.0,38.0,31.2,21.2,0000.0,0014.00,0005.37,0004.11
2022-08-10 23:02:00,,0831.9,5.00,0.00,29.3,27.2,00.0,38.0,31.1,21.3,0000.0,0014.23,0005.38,0004.12
2022-08-10 23:03:00,,0831.9,4.99,0.00,29.3,27.3,00.0,38.0,31.1,21.4,0000.0,0013.71,0005.37,0004.11
2022-08-10 23:04:00,,0831.9,5.02,0.00,29.3,27.4,00.0,38.0,31.1,21.6,0000.0,0013.58,0005.36,0004.10
2022-08-10 23:05:00,,0832.0,4.99,0.00,29.3,27.6,00.0,38.0,31.1,21.5,0000.0,0013.17,0005.38,0004.09
2022-08-10 23:06:00,,0831.9,5.00,0.00,29.3,27.8,00.0,38.0,31.2,21.7,0000.0,0012.99,0005.37,0004.10
2022-08-10 23:07:00,,0832.0,5.00,0.00,29.3,28.0,00.0,38.0,31.3,22.6,0000.0,0013.21,0005.34,0004.09
2022-08-10 23:08:00,,0831.9,5.00,0.00,29.4,28.2,00.0,38.1,31.4,22.4,0000.0,0014.34,0005.37,0004.09
2022-08-10 23:09:00,,0831.9,5.00,0.00,29.4,27.9,00.0,38.1,31.3,21.9,0000.0,0015.25,0005.43,0004.08
2022-08-10 23:10:00,,0831.9,4.99,0.00,29.4,27.3,00.0,38.0,31.1,22.5,0000.0,0015.42,0005.47,0004.07
2022-08-10 23:11:00,,0831.9,5.01,0.00,29.3,27.2,00.0,38.0,31.1,21.5,0000.0,0015.11,0005.48,0004.07
2022-08-10 23:12:00,,0831.9,4.99,0.00,29.3,27.3,00.0,38.0,31.1,22.5,0000.0,0014.25,0005.45,0004.06
2022-08-10 23:13:00,,0831.8,5.00,0.00,29.3,27.5,00.0,38.0,31.1,22.6,0000.0,0014.33,0005.41,0004.04
2022-08-10 23:14:00,,0831.8,4.99,0.00,29.3,27.7,00.0,38.0,31.2,22.4,0000.0,0013.98,0005.36,0004.03
2022-08-10 23:15:00,,0831.8,5.00,0.00,29.4,28.0,00.0,38.0,31.3,22.3,0000.0,0014.09,0005.34,0004.03
2022-08-10 23:16:00,,0831.8,5.00,0.00,29.4,28.2,00.0,38.1,31.3,21.9,0000.0,0014.77,0005.33,0004.03
2022-08-10 23:17:00,,0831.8,5.00,0.00,29.5,28.2,00.0,38.1,31.4,22.3,0000.0,0015.03,0005.32,0004.04
2022-08-10 23:18:00,,0831.8,5.01,0.00,29.4,27.6,00.0,38.1,31.3,22.0,0000.0,0014.95,0005.29,0004.05
2022-08-10 23:19:00,,0831.7,4.99,0.00,29.4,27.2,00.0,38.1,31.1,21.8,0000.0,0014.32,0005.29,0004.06
2022-08-10 23:20:00,,0831.8,5.01,0.00,29.3,27.3,00.0,38.0,31.2,22.0,0000.0,0013.60,0005.23,0004.07
2022-08-10 23:21:00,,0831.7,4.99,0.00,29.3,27.4,00.0,38.0,31.1,22.0,0000.0,0012.98,0005.20,0004.08
2022-08-10 23:22:00,,0831.7,5.00,0.00,29.3,27.6,00.0,38.0,31.1,22.3,0000.0,0013.21,0005.22,0004.09
2022-08-10 23:23:00,,0831.7,5.00,0.00,29.3,27.8,00.0,38.0,31.2,22.8,0000.0,0013.86,0005.24,0004.10
2022-08-10 23:24:00,,0831.7,5.00,0.00,29.4,28.1,00.0,38.1,31.3,22.8,0000.0,0013.66,0005.24,0004.11
2022-08-10 23:25:00,,0831.7,4.99,0.00,29.4,28.3,00.0,38.1,31.4,22.7,0000.0,0013.60,0005.28,0004.12
2022-08-10 23:26:00,,0831.7,5.01,0.00,29.5,28.0,00.0,38.1,31.3,22.2,0000.0,0014.17,0005.32,0004.14
2022-08-10 23:27:00,,0831.7,4.99,0.00,29.4,27.4,00.0,38.1,31.2,22.1,0000.0,0014.40,0005.37,0004.15
2022-08-10 23:28:00,,0831.7,5.01,0.00,29.4,27.2,00.0,38.1,31.1,22.5,0000.0,0015.57,0005.44,0004.15
2022-08-10 23:29:00,,0831.7,5.00,0.00,29.3,27.3,00.0,38.1,31.1,22.4,0000.0,0016.21,0005.47,0004.14
2022-08-10 23:30:00,,0831.7,5.01,0.00,29.3,27.5,00.0,38.1,31.1,22.2,0000.0,0017.02,0005.43,0004.12
2022-08-10 23:31:00,,0831.7,5.01,0.00,29.3,27.7,00.0,38.1,31.2,22.1,0000.0,0016.86,0005.44,0004.13
2022-08-10 23:32:00,,0831.8,5.00,0.00,29.4,27.9,00.0,38.1,31.3,22.0,0000.0,0017.17,0005.44,0004.13
2022-08-10 23:33:00,,0831.7,5.00,0.00,29.4,28.2,00.0,38.1,31.4,21.8,0000.0,0017.29,0005.42,0004.13
2022-08-10 23:34:00,,0831.7,5.00,0.00,29.5,28.2,00.0,38.1,31.4,22.1,0000.0,0016.68,0005.39,0004.11
2022-08-10 23:35:00,,0831.7,4.99,0.00,29.5,27.7,00.0,38.1,31.3,22.1,0000.0,0016.79,0005.37,0004.10
2022-08-10 23:36:00,,0831.6,5.01,0.00,29.4,27.3,00.0,38.1,31.2,22.1,0000.0,0017.07,0005.36,0004.10
2022-08-10 23:37:00,,0831.7,4.99,0.00,29.4,27.3,00.0,38.1,31.2,22.1,0000.0,0016.82,0005.33,0004.09
2022-08-10 23:38:00,,0831.7,5.00,0.00,29.3,27.4,00.0,38.1,31.1,22.3,0000.0,0016.34,0005.27,0004.08
2022-08-10 23:39:00,,0831.7,4.99,0.00,29.3,27.6,00.0,38.1,31.2,22.2,0000.0,0014.89,0005.20,0004.08
2022-08-10 23:40:00,,0831.7,5.01,0.00,29.4,27.8,00.0,38.1,31.3,22.3,0000.0,0015.00,0005.19,0004.09
2022-08-10 23:41:00,,0831.6,5.00,0.00,29.4,28.0,00.0,38.1,31.3,22.9,0000.0,0014.77,0005.19,0004.09
2022-08-10 23:42:00,,0831.6,5.00,0.00,29.5,28.1,00.0,38.1,31.4,21.8,0000.0,0015.15,0005.21,0004.09
2022-08-10 23:43:00,,0831.6,4.99,0.00,29.4,27.6,00.0,38.1,31.2,21.9,0000.0,0014.88,0005.23,0004.10
2022-08-10 23:44:00,,0831.6,5.00,0.00,29.4,27.2,00.0,38.1,31.1,21.5,0000.0,0015.52,0005.20,0004.09
2022-08-10 23:45:00,,0831.5,4.99,0.00,29.3,27.2,00.0,38.1,31.1,21.7,0000.0,0016.48,0005.20,0004.09
2022-08-10 23:46:00,,0831.5,5.01,0.00,29.3,27.3,00.0,38.0,31.1,22.2,0000.0,0017.37,0005.23,0004.11
2022-08-10 23:47:00,,0831.5,4.99,0.00,29.3,27.5,00.0,38.0,31.1,21.8,0000.0,0017.45,0005.23,0004.11
2022-08-10 23:48:00,,0831.5,5.01,0.00,29.3,27.8,00.0,38.0,31.2,22.0,0000.0,0017.01,0005.27,0004.11
2022-08-10 23:49:00,,0831.5,5.01,0.00,29.4,28.0,00.0,38.1,31.3,22.2,0000.0,0016.60,0005.30,0004.12
2022-08-10 23:50:00,,0831.5,4.99,0.00,29.4,28.2,00.0,38.1,31.4,22.1,0000.0,0016.77,0005.35,0004.11
2022-08-10 23:51:00,,0831.5,5.01,0.00,29.4,28.0,00.0,38.1,31.3,22.8,0000.0,0016.81,0005.40,0004.12
2022-08-10 23:52:00,,0831.5,4.99,0.00,29.4,27.4,00.0,38.1,31.2,23.2,0000.0,0016.47,0005.41,0004.12
2022-08-10 23:53:00,,0831.5,5.01,0.00,29.3,27.2,00.0,38.1,31.1,22.8,0000.0,0017.15,0005.40,0004.13
2022-08-10 23:54:00,,0831.4,5.01,0.00,29.3,27.3,00.0,38.0,31.1,22.5,0000.0,0017.54,0005.34,0004.12
2022-08-10 23:55:00,,0831.4,4.99,0.00,29.3,27.5,00.0,38.0,31.1,22.0,0000.0,0018.16,0005.36,0004.10
2022-08-10 23:56:00,,0831.5,4.99,0.00,29.3,27.7,00.0,38.0,31.2,21.6,0000.0,0018.08,0005.40,0004.10
2022-08-10 23:57:00,,0831.4,5.02,0.00,29.3,27.9,00.0,38.1,31.3,21.9,0000.0,0016.83,0005.40,0004.10
2022-08-10 23:58:00,,0831.4,5.00,0.00,29.4,28.1,00.0,38.1,31.4,21.9,0000.0,0016.10,0005.39,0004.10
2022-08-10 23:59:00,,0831.4,5.00,0.00,29.4,28.2,00.0,38.1,31.4,22.1,0000.0,0016.83,0005.33,0004.10
